Weather History for Ashland, WI

Change the Weather History Date:

Tuesday, May 8, 2012

  Actual Average Record
Temperature  
Mean Temperature 45 °F -  
Max Temperature 57 °F 62 °F 88 °F (1953)
Min Temperature 35 °F 36 °F 20 °F (1983)
Degree Days  
Heating Degree Days 20    
Moisture  
Dew Point 42 °F    
Average Humidity 84    
Maximum Humidity 100    
Minimum Humidity 66    
Precipitation  
Precipitation 0.00 in - - ()
Sea Level Pressure  
Sea Level Pressure 29.89 in    
Wind  
Wind Speed 6 mph (NNE)    
Max Wind Speed 15 mph    
Max Gust Speed 22 mph    
Visibility 8 miles    
Events Fog    
Averages and records for this station are not official NWS values.
T = Trace of Precipitation, MM = Missing Value Source: NWS Daily Summary

Daily Weather History Graph

Daily Weather History Graph

Search for Another Location

Airport:

Trip Planner

Search our weather history database for the weather conditions in past years. The results will help you decide how hot, cold, wet, or windy it might be!

Date:

Astronomy

May. 08, 2012 Rise Set
Actual Time 5:38 AM CDT 8:22 PM CDT
Civil Twilight 5:03 AM CDT 8:57 PM CDT
Nautical Twilight 4:19 AM CDT 9:41 PM CDT
Astronomical Twilight 3:28 AM CDT 10:33 PM CDT
Moon 11:38 PM CDT (5/8) 7:40 AM CDT (5/8)
Length of Visible Light 15h 54m
Length of Day
14h 44m
Waning Gibbous, 90% of the Moon is Illuminated
May 8
Waning Gibbous
May 12
Last Quarter
May 20
New
May 28
First Quarter
Jun 4
Full

Hourly Weather History & Observations

Time (CDT) Temp. Windchill Dew Point Humidity Pressure Visibility Wind Dir Wind Speed Gust Speed Precip Events Conditions
12:53 AM 48.9 °F - 37.9 °F 66% 29.83 in 10.0 mi WSW 5.8 mph - N/A   Clear
1:53 AM 46.0 °F 43.1 °F 37.9 °F 73% 29.83 in 10.0 mi WSW 5.8 mph - N/A   Clear
2:53 AM 42.1 °F 40.2 °F 37.0 °F 82% 29.83 in 10.0 mi West 3.5 mph - N/A   Clear
3:53 AM 42.1 °F - 39.0 °F 89% 29.83 in 10.0 mi Calm Calm - N/A   Clear
4:39 AM 37.4 °F - 35.6 °F 93% 29.82 in 7.0 mi Calm Calm - N/A   Partly Cloudy
4:42 AM 37.4 °F 34.9 °F 35.6 °F 93% 29.82 in 1.2 mi East 3.5 mph - N/A   Partly Cloudy
4:44 AM 35.6 °F - 35.6 °F 100% 29.82 in 0.8 mi Calm Calm - N/A   Mist
4:53 AM 36.0 °F 31.1 °F 36.0 °F 100% 29.84 in 0.5 mi NNE 5.8 mph - N/A Fog Fog
5:23 AM 37.4 °F 34.9 °F 37.4 °F 100% 29.82 in 0.2 mi North 3.5 mph - N/A Fog Fog
5:53 AM 37.0 °F - 37.0 °F 100% 29.84 in 0.2 mi Calm Calm - N/A Fog Fog
6:53 AM 42.1 °F - 41.0 °F 96% 29.84 in 0.2 mi Calm Calm - N/A Fog Fog
7:53 AM 42.1 °F - 42.1 °F 100% 29.86 in 0.2 mi Calm Calm - N/A Fog Fog
8:22 AM 44.6 °F - 42.8 °F 93% 29.84 in 1.0 mi Calm Calm - N/A   Mostly Cloudy
8:25 AM 44.6 °F - 44.6 °F 100% 29.84 in 3.0 mi Calm Calm - N/A   Mostly Cloudy
8:41 AM 46.4 °F - 44.6 °F 93% 29.84 in 10.0 mi Calm Calm - N/A   Overcast
8:53 AM 48.9 °F - 43.0 °F 80% 29.86 in 10.0 mi Calm Calm - N/A   Overcast
10:53 AM 53.1 °F - 44.1 °F 71% 29.87 in 10.0 mi NNE 10.4 mph - N/A   Overcast
11:53 AM 51.1 °F - 44.1 °F 77% 29.88 in 10.0 mi NE 9.2 mph - N/A   Overcast
12:53 PM 54.0 °F - 44.1 °F 69% 29.87 in 10.0 mi NNE 10.4 mph - N/A   Clear
1:53 PM 55.0 °F - 45.0 °F 69% 29.88 in 10.0 mi NNE 11.5 mph - N/A   Partly Cloudy
2:10 PM 53.6 °F - 44.6 °F 72% 29.87 in 10.0 mi ENE 10.4 mph - N/A   Partly Cloudy
2:53 PM 52.0 °F - 44.1 °F 74% 29.91 in 10.0 mi NE 13.8 mph - N/A   Scattered Clouds
3:02 PM 51.8 °F - 44.6 °F 76% 29.89 in 10.0 mi NE 13.8 mph - N/A   Mostly Cloudy
3:36 PM 51.8 °F - 44.6 °F 76% 29.89 in 10.0 mi NNE 13.8 mph - N/A   Overcast
3:53 PM 52.0 °F - 44.1 °F 74% 29.91 in 10.0 mi NNE 13.8 mph - N/A   Mostly Cloudy
4:00 PM 51.8 °F - 42.8 °F 71% 29.89 in 10.0 mi NNE 13.8 mph - N/A   Scattered Clouds
4:36 PM 51.8 °F - 42.8 °F 71% 29.90 in 10.0 mi NE 11.5 mph 21.9 mph N/A   Mostly Cloudy
4:53 PM 52.0 °F - 44.1 °F 74% 29.92 in 10.0 mi NE 15.0 mph - N/A   Overcast
5:12 PM 51.8 °F - 42.8 °F 71% 29.90 in 10.0 mi NNE 12.7 mph - N/A   Scattered Clouds
5:53 PM 52.0 °F - 44.1 °F 74% 29.92 in 10.0 mi NNE 13.8 mph - N/A   Partly Cloudy
6:05 PM 50.0 °F - 42.8 °F 76% 29.90 in 10.0 mi NNE 12.7 mph - N/A   Mostly Cloudy
6:53 PM 48.9 °F - 43.0 °F 80% 29.95 in 10.0 mi NE 9.2 mph - N/A   Overcast
7:53 PM 48.0 °F - 43.0 °F 83% 29.96 in 10.0 mi NE 5.8 mph - N/A   Overcast
8:35 PM 48.2 °F - 42.8 °F 82% 29.96 in 10.0 mi NE 8.1 mph - N/A   Overcast
8:53 PM 46.9 °F - 43.0 °F 86% 29.99 in 10.0 mi ENE 5.8 mph - N/A   Overcast
9:13 PM 46.4 °F 42.9 °F 44.6 °F 93% 29.98 in 3.0 mi NE 6.9 mph - N/A   Overcast
9:53 PM 46.0 °F 43.1 °F 45.0 °F 96% 30.00 in 4.0 mi NE 5.8 mph - N/A   Overcast
10:31 PM 46.4 °F 45.2 °F 44.6 °F 93% 29.99 in 10.0 mi NNW 3.5 mph - N/A   Overcast
10:53 PM 46.0 °F 44.8 °F 44.1 °F 93% 30.00 in 10.0 mi NNE 3.5 mph - N/A   Overcast
11:53 PM 46.0 °F - 45.0 °F 96% 30.01 in 10.0 mi Calm Calm - N/A   Overcast